Content
SEND FEEDBACK

United States of America Flag

JASPER, ALABAMA


Home > North America > United States > Alabama
Elevation: 487 feet     Latitude: 33 54N     Longitude: 087 16W

WEATHER
 
SELECT A DAY
Number of Records: 118,068;   Date Range: 2/7/11 - 3/22/16
 
SHARE

PRINT THIS DATA

[ ← Previous Day ]
WEATHER ALMANAC - JANUARY 30, 2013
[ Next Day → ]
[ °C ]   °F
Weather ElementAverageHighLow
Temperature56.1 °F73.4 °F (3:55 am)37.4 °F (11:15 pm)
Dewpoint51.7 °F69.8 °F (5:35 am)30.2 °F (10:15 pm)
Humidity85.6 %100 % (5:35 am)62 % (5:35 pm)
Barometer29.72 in30.02 in (11:55 pm)29.62 in (5:15 am)
Wind Speed9.5 mph34.5 mph (5:55 pm)
Wind Gust42.6 mph (5:55 pm)
Weather ElementAverage
Visibility7.5 mi
Wind DirectionSW (220.9 °)

Weather ElementTotal
Precipitation---
Heating Degree Days9.6 (Base 65)
Growing Degree Days5.4 (Base 50)
Averaged from 69 records on January 30, 2013
WEATHER CONDITIONS BREAKOUT
WIND DIRECTION BREAKOUT
WEATHER BY HOUR - JANUARY 30, 2013
[ °C ]   °F
Local TimeTemperatureDewpointHumidityBarometerVisibilityWind DirectionWind SpeedGust SpeedPrecipitationEventsConditions
12:35 AM71.6 °F66.2 °F83 %29.77 in10.0 miSouth (180°)11.5 mph21.9 mphMostly Cloudy
1:15 AM71.6 °F66.2 °F83 %29.74 in10.0 miSouth (170°)8.1 mph17.3 mphMostly Cloudy
1:35 AM71.6 °F66.2 °F83 %29.74 in10.0 miSouth (180°)11.5 mph19.6 mphMostly Cloudy
1:55 AM71.6 °F66.2 °F83 %29.73 in10.0 miSouth (180°)9.2 mph18.4 mphMostly Cloudy
2:15 AM71.6 °F66.2 °F83 %29.72 in10.0 miSouth (180°)8.1 mph18.4 mphScattered Clouds
2:35 AM71.6 °F66.2 °F83 %29.73 in10.0 miSouth (190°)9.2 mph21.9 mphMostly Cloudy
2:55 AM71.6 °F66.2 °F83 %29.70 in10.0 miSouth (180°)11.5 mph23.0 mphMostly Cloudy
3:15 AM71.6 °F66.2 °F83 %29.68 in10.0 miSouth (180°)11.5 mph19.6 mphMostly Cloudy
3:35 AM71.6 °F66.2 °F83 %29.67 in10.0 miSouth (180°)11.5 mph24.2 mphMostly Cloudy
3:55 AM73.4 °F66.2 °F78 %29.67 in10.0 miSouth (190°)11.5 mph25.3 mphMostly Cloudy
4:15 AM73.4 °F66.2 °F78 %29.66 in10.0 miSouth (180°)12.7 mph21.9 mphMostly Cloudy
4:35 AM73.4 °F66.2 °F78 %29.65 in10.0 miSouth (190°)10.4 mph20.7 mphMostly Cloudy
4:55 AM71.6 °F66.2 °F83 %29.64 in4.0 miSouth (190°)8.1 mph19.6 mphRainLight Rain
5:15 AM69.8 °F68.0 °F94 %29.62 in1.5 miSouth (180°)8.1 mph17.3 mphRain-ThunderstormLight Rain
5:35 AM69.8 °F69.8 °F100 %29.62 in7.0 miSSW (210°)9.2 mph18.4 mphRainLight Rain
5:55 AM68.0 °F68.0 °F100 %29.62 in1.0 miSSW (210°)15.0 mph29.9 mphRain-ThunderstormLight Rain
6:15 AM66.2 °F66.2 °F100 %29.66 in3.0 miNW (320°)20.7 mph25.3 mphRain-ThunderstormHeavy Rain
6:35 AM59.0 °F57.2 °F94 %29.67 in2.0 miNW (310°)11.5 mph18.4 mphRainHeavy Rain
6:55 AM57.2 °F57.2 °F100 %29.66 in2.5 miNNW (330°)5.8 mphRainRain
7:15 AM57.2 °F57.2 °F100 %29.67 in2.5 miWNW (300°)3.5 mphRainHeavy Rain
7:35 AM57.2 °F57.2 °F100 %29.66 in2.5 miNW (310°)4.6 mphRainHeavy Rain
7:55 AM57.2 °F57.2 °F100 %29.65 in2.0 miCalmRain-ThunderstormHeavy Rain
8:15 AM57.2 °F57.2 °F100 %29.65 in1.5 miCalmRain-ThunderstormHeavy Rain
8:35 AM57.2 °F57.2 °F100 %29.64 in4.0 miCalmRainHeavy Rain
8:55 AM57.2 °F57.2 °F100 %29.64 in4.0 miCalmRainLight Rain
9:15 AM57.2 °F57.2 °F100 %29.67 in3.0 miSouth (170°)3.5 mphRainRain
9:35 AM57.2 °F57.2 °F100 %29.67 in3.0 miWSW (250°)4.6 mphRainHeavy Rain
9:55 AM55.4 °F53.6 °F94 %29.68 in3.0 miWest (270°)10.4 mphRain-ThunderstormHeavy Rain
10:15 AM53.6 °F51.8 °F94 %29.66 in2.5 miWest (270°)5.8 mphRainRain
10:35 AM53.6 °F51.8 °F94 %29.68 in6.0 miWest (260°)4.6 mphRainRain
10:55 AM53.6 °F53.6 °F100 %29.65 in4.0 miCalmRainRain
11:15 AM55.4 °F53.6 °F94 %29.67 in3.0 miCalmRainHeavy Rain
11:35 AM55.4 °F53.6 °F94 %29.68 in3.0 miSouth (180°)3.5 mphRainRain
11:55 AM55.4 °F53.6 °F94 %29.65 in4.0 miSouth (170°)3.5 mphRainLight Rain
12:15 PM55.4 °F53.6 °F94 %29.66 in4.0 miSW (230°)3.5 mphRainRain
12:35 PM55.4 °F53.6 °F94 %29.64 in7.0 miSW (220°)4.6 mphRainRain
12:55 PM55.4 °F53.6 °F94 %29.63 in3.0 miSW (230°)4.6 mphPartly Cloudy
1:15 PM55.4 °F53.6 °F94 %29.63 in10.0 miSW (230°)5.8 mphPartly Cloudy
1:35 PM53.6 °F53.6 °F100 %29.66 in10.0 miSSW (210°)4.6 mphPartly Cloudy
1:55 PM55.4 °F53.6 °F94 %29.64 in10.0 miSSW (210°)3.5 mphClear
2:15 PM55.4 °F53.6 °F94 %29.64 in10.0 miSSW (210°)3.5 mphClear
2:35 PM55.4 °F53.6 °F94 %29.63 in10.0 miSW (220°)5.8 mphPartly Cloudy
2:55 PM55.4 °F53.6 °F94 %29.63 in10.0 miSW (220°)3.5 mphClear
3:15 PM55.4 °F51.8 °F88 %29.63 in10.0 miSW (230°)5.8 mphPartly Cloudy
3:35 PM55.4 °F51.8 °F88 %29.63 in10.0 miWSW (240°)5.8 mphScattered Clouds
3:55 PM55.4 °F51.8 °F88 %29.66 in10.0 miSW (230°)3.5 mphPartly Cloudy
4:15 PM55.4 °F51.8 °F88 %29.66 in9.0 miSW (230°)8.1 mphScattered Clouds
4:35 PM53.6 °F51.8 °F94 %29.66 in8.0 miWest (270°)12.7 mph17.3 mphMostly Cloudy
4:55 PM53.6 °F48.2 °F82 %29.67 in10.0 miWest (280°)12.7 mph18.4 mphPartly Cloudy
5:15 PM53.6 °F46.4 °F77 %29.68 in10.0 miWSW (250°)10.4 mph18.4 mphScattered Clouds
5:35 PM53.6 °F41.0 °F62 %29.70 in10.0 miWSW (250°)16.1 mph26.5 mphPartly Cloudy
5:55 PM48.2 °F39.2 °F71 %29.75 in10.0 miWNW (290°)34.5 mph42.6 mphLight Drizzle
6:15 PM46.4 °F37.4 °F71 %29.79 in10.0 miWest (280°)27.6 mph35.7 mphMostly Cloudy
6:35 PM46.4 °F37.4 °F71 %29.80 in10.0 miWest (270°)20.7 mph29.9 mphMostly Cloudy
6:55 PM46.4 °F37.4 °F71 %29.81 in10.0 miWest (270°)16.1 mph26.5 mphScattered Clouds
7:15 PM44.6 °F35.6 °F71 %29.82 in10.0 miWest (270°)13.8 mph21.9 mphClear
7:35 PM44.6 °F35.6 °F71 %29.83 in10.0 miWest (260°)9.2 mph19.6 mphClear
7:55 PM44.6 °F35.6 °F71 %29.84 in10.0 miWest (270°)10.4 mph20.7 mphRainLight Rain
8:15 PM44.6 °F35.6 °F71 %29.85 in10.0 miWNW (300°)17.3 mph26.5 mphRainLight Rain
8:35 PM44.6 °F33.8 °F66 %29.87 in10.0 miWest (280°)16.1 mph24.2 mphMostly Cloudy
8:55 PM44.6 °F33.8 °F66 %29.89 in10.0 miWest (270°)16.1 mph26.5 mphRainLight Rain
9:15 PM44.6 °F33.8 °F66 %29.92 in10.0 miWNW (300°)27.6 mph35.7 mphRainLight Rain
9:35 PM42.8 °F33.8 °F70 %29.94 in10.0 miWNW (300°)13.8 mph23.0 mphPartly Cloudy
9:55 PM41.0 °F32.0 °F70 %29.96 in10.0 miNW (310°)23.0 mph28.8 mphClear
10:15 PM39.2 °F30.2 °F70 %29.97 in10.0 miWNW (300°)17.3 mph24.2 mphClear
10:35 PM39.2 °F30.2 °F70 %29.99 in10.0 miWNW (300°)6.9 mphClear
11:15 PM37.4 °F30.2 °F75 %30.01 in10.0 miWNW (300°)8.1 mphPartly Cloudy
11:35 PM37.4 °F30.2 °F75 %30.01 in10.0 miWNW (300°)8.1 mphClear
11:55 PM37.4 °F30.2 °F75 %30.02 in10.0 miWNW (300°)6.9 mphRainLight Rain
Hourly data recorded from KJFX, located miles away from Jasper, Alabama




STORIES FROM OUR PARTNERS